Tianeti

Georgia     42˚06′42″N   44˚58′04″E
temp.,
°C
wind,
m/s
gust,
m/s
humid.,
%
clouds,
%
prec.,
mm/h
press.,
hPa
HPBL,
m
29 november, sun
sun2901:00−3˚ene11650 0.0 102821
04:00−2˚ene11610 0.0 102821
07:00−3˚ese015766 0.0 102721
10:00+1˚ene114872 0.0 102777
13:00+5˚ene123976 0.0 1024484
16:00+4˚ene124888 0.0 1024126
19:00+1˚ene0155100 0.0 102522
22:00+1˚se1266100 0.0 102623
30 november, mon
mon3001:00+1˚ne1172100 0.1 102522
04:00e1171100 0.1 102522
07:00ene0074100 0.0 102424
10:00+2˚e1175100 0.0 1024169
13:00+5˚ese116598 0.0 1022624
16:00+4˚ese226798 0.0 1021689
19:00+2˚ene128299 0.0 1023232
22:00+1˚ne1296100 0.1 102494
1 december, tue
tue101:00+1˚ne1297100 0.9 1024100
04:00+1˚ene1197100 2.2 102386
07:00+1˚ese0197100 0.8 102398
10:00+1˚ese019299 0.9 1023199
13:00+3˚e0182100 0.1 1022376
16:00+3˚e1176100 0.1 1021503
19:00+2˚se118895 0.0 102427
22:00−1˚ene019448 0.0 102522
2 december, wed
wed201:00−1˚ne01930 0.0 102521
04:00−1˚ne00910 0.0 102521
07:00−1˚nne00880 0.0 102621
10:00+2˚ne00710 0.0 102579
13:00+7˚e11550 0.0 1024673
16:00+6˚e11620 0.0 1023550
19:00+1˚e11870 0.0 102522
22:00−1˚ene11910 0.0 102721
3 december, thu
thu301:00−1˚e11920 0.0 102721
04:00−1˚ene11923 0.0 102821
07:00−2˚e019254 0.0 102821
10:00+2˚e118061 0.0 1028158
13:00+3˚e127594 0.0 1027498
16:00+2˚e128297 0.0 1026324
19:00+1˚e1191100 0.0 102843
22:00+1˚e1196100 0.0 102892